Location: Ballingbuur
(53.0000°N, 5.7667°E)
Time: 14:46:37
(UTC+00:00)

ARGOS Delta rocket - Visible Passes

Search period start: 20 April 2021 00:00
Search period end: 30 April 2021 00:00
Orbit: 634 x 838 km, 96.5° (Epoch: 20 April)

Date Brightness Start Highest point End Pass type
(mag) Time Alt. Az. Time Alt. Az. Time Alt. Az.
20 Apr 6.2 00:36:19 10° ENE 00:38:00 12° E 00:39:40 10° ESE visible
20 Apr 3.6 02:12:58 10° NNE 02:17:27 85° ESE 02:19:55 26° S visible
21 Apr 4.9 01:27:58 10° NNE 01:32:02 34° E 01:34:20 21° SE visible
21 Apr 4.5 03:06:43 10° N 03:10:42 33° WNW 03:13:55 14° SW visible
22 Apr 6.1 00:43:51 10° NE 00:46:19 15° E 00:48:43 10° ESE visible
22 Apr 3.6 02:21:10 10° N 02:25:36 79° WNW 02:28:19 23° SSW visible
23 Apr 4.6 01:36:03 10° NNE 01:40:15 41° E 01:42:43 22° SSE visible
23 Apr 4.8 03:15:01 10° N 03:18:47 28° WNW 03:22:19 11° WSW visible
24 Apr 5.9 00:51:37 10° NE 00:54:37 18° E 00:57:07 12° SE visible
24 Apr 3.7 02:29:22 10° N 02:33:45 65° WNW 02:36:43 20° SSW visible
25 Apr 4.2 01:44:08 10° NNE 01:48:28 51° E 01:51:07 22° SSE visible
25 Apr 5.0 03:23:21 10° N 03:26:52 23° WNW 03:30:21 10° WSW visible
26 Apr 5.6 00:59:29 10° NE 01:02:53 21° E 01:05:30 13° SE visible
26 Apr 3.9 02:37:35 10° N 02:41:53 53° WNW 02:45:07 17° SW visible
27 Apr 3.9 01:52:15 10° NNE 01:56:39 63° E 01:59:31 21° S visible
27 Apr 5.3 03:31:44 10° NNW 03:34:55 20° WNW 03:38:07 10° WSW visible
28 Apr 5.4 01:07:26 10° NNE 01:11:09 26° E 01:13:55 15° SE visible
28 Apr 4.2 02:45:50 10° N 02:50:00 43° WNW 02:53:31 14° SW visible
29 Apr 6.3 00:24:13 10° ENE 00:25:22 11° E 00:26:31 10° E visible
29 Apr 3.7 02:00:24 10° NNE 02:04:49 78° ESE 02:07:55 20° S visible
